Main page
METAR-TAF:

METAR-TAF

Airports :

Winner Regional Airport

Winner, South Dakota, United States

latitude: 43-23-26N, longitude: 099-50-33W, elevation: 2030 ft

Current weather observation

The report was made 12 minutes ago, at 07:53 UTC
Wind 6 mph from the South/Southeast
Temperature 59°F
Humidity 88%
Pressure 29.98 in. Hg
Visibility: 7 miles
Broken clouds at a height of 800 ft
Overcast at a height of 1500 ft

METAR: KICR 180753Z AUTO 15005KT 7SM BKN008 OVC015 15/13 A2998 RMK AO2 SLP148 T01500128

Time: 03:05 (08:05 UTC)


TAF: missing

Weather observations and forecasts of more than 4000 airports (METAR and TAF reports).

The available stations are represented by yellow and red dots on the map.

Hover mouse over dot to see the name of the station.

Then click to see weather observations and forecasts.

To change the map : click on the green buttons with a black cross to zoom in, on the green button with a dash to zoom out, or on the green arrows for adjacent maps.


METAR-TAF: